Date String (YYYY-MM-DD hh:mm:ss) UTC,Instrument flags,Ambient pressure (hPa),Sample flow (lpm),Bypass flow (lpm),Sample temperature (°C),Ambient temperature (°C),ASC tube jacket temperature (°C),LED temperature (°C),Box temperature (°C),Sample RH (%),Span deviation,Mass concentration (μg/m³),Mass concentration (μg/m³),Mass concentration (μg/m³)
DateTimeUTC,F1_M11,P_M11,Q1_M11,Q2_M11,T1_M11,T2_M11,T3_M11,T4_M11,T5_M11,U1_M11,ZSPAN_M11,X0_M11,X2_M11,X1_M11
2022-06-02 07:00:00,,0829.5,5.00,0.00,25.3,24.3,00.0,34.4,27.3,24.9,0000.0,0007.88,0005.14,0004.90
2022-06-02 07:01:00,,0829.5,5.00,0.00,25.4,24.3,00.0,34.4,27.3,24.8,0000.0,0007.79,0005.11,0004.90
2022-06-02 07:02:00,,0829.5,5.00,0.00,25.4,24.4,00.0,34.4,27.3,24.8,0000.0,0007.70,0005.10,0004.91
2022-06-02 07:03:00,,0829.6,5.00,0.00,25.4,24.4,00.0,34.4,27.3,24.8,0000.0,0007.58,0005.11,0004.93
2022-06-02 07:04:00,,0829.6,5.00,0.00,25.4,24.4,00.0,34.4,27.3,24.7,0000.0,0007.40,0005.13,0004.94
2022-06-02 07:05:00,,0829.5,5.00,0.00,25.4,24.5,00.0,34.4,27.4,24.7,0000.0,0007.41,0005.16,0004.95
2022-06-02 07:06:00,,0829.5,5.00,0.00,25.5,24.5,00.0,34.4,27.4,24.6,0000.0,0007.50,0005.22,0004.98
2022-06-02 07:07:00,,0829.5,5.01,0.00,25.5,24.5,00.0,34.4,27.4,24.6,0000.0,0007.57,0005.24,0005.00
2022-06-02 07:08:00,,0829.5,5.00,0.00,25.5,24.5,00.0,34.4,27.4,24.6,0000.0,0007.61,0005.25,0005.04
2022-06-02 07:09:00,,0829.6,5.01,0.00,25.5,24.6,00.0,34.5,27.5,24.6,0000.0,0007.67,0005.30,0005.08
2022-06-02 07:10:00,,0829.6,5.00,0.00,25.5,24.6,00.0,34.5,27.5,24.6,0000.0,0007.74,0005.33,0005.10
2022-06-02 07:11:00,,0829.6,5.00,0.00,25.5,24.6,00.0,34.5,27.5,24.6,0000.0,0007.81,0005.38,0005.14
2022-06-02 07:12:00,,0829.6,5.00,0.00,25.6,24.6,00.0,34.5,27.5,24.6,0000.0,0007.88,0005.43,0005.19
2022-06-02 07:13:00,,0829.5,4.99,0.00,25.6,24.6,00.0,34.5,27.5,24.6,0000.0,0007.95,0005.48,0005.24
2022-06-02 07:14:00,,0829.6,5.01,0.00,25.6,24.7,00.0,34.5,27.5,24.6,0000.0,0008.05,0005.53,0005.27
2022-06-02 07:15:00,,0829.5,4.99,0.00,25.6,24.7,00.0,34.5,27.5,24.6,0000.0,0008.07,0005.54,0005.29
2022-06-02 07:16:00,,0829.5,5.01,0.00,25.6,24.7,00.0,34.5,27.6,24.6,0000.0,0008.13,0005.58,0005.32
2022-06-02 07:17:00,,0829.4,5.00,0.00,25.6,24.7,00.0,34.5,27.6,24.6,0000.0,0008.12,0005.58,0005.34
2022-06-02 07:18:00,,0829.4,4.99,0.00,25.6,24.7,00.0,34.6,27.6,24.6,0000.0,0008.09,0005.59,0005.37
2022-06-02 07:19:00,,0829.4,5.00,0.00,25.7,24.7,00.0,34.6,27.6,24.6,0000.0,0008.06,0005.62,0005.41
2022-06-02 07:20:00,,0829.4,4.99,0.00,25.7,24.8,00.0,34.6,27.6,24.5,0000.0,0008.01,0005.60,0005.40
2022-06-02 07:21:00,,0829.4,5.00,0.00,25.7,24.8,00.0,34.6,27.6,24.5,0000.0,0007.93,0005.57,0005.38
2022-06-02 07:22:00,,0829.4,4.99,0.00,25.7,24.8,00.0,34.6,27.6,24.5,0000.0,0007.90,0005.55,0005.37
2022-06-02 07:23:00,,0829.4,5.01,0.00,25.7,24.8,00.0,34.6,27.7,24.4,0000.0,0007.90,0005.54,0005.35
2022-06-02 07:24:00,,0829.4,4.99,0.00,25.7,24.8,00.0,34.6,27.7,24.4,0000.0,0007.94,0005.52,0005.31
2022-06-02 07:25:00,,0829.3,5.02,0.00,25.7,24.8,00.0,34.6,27.7,24.4,0000.0,0007.85,0005.47,0005.28
2022-06-02 07:26:00,,0829.2,4.99,0.00,25.7,24.8,00.0,34.6,27.7,24.3,0000.0,0007.78,0005.45,0005.26
2022-06-02 07:27:00,,0829.2,5.01,0.00,25.7,24.8,00.0,34.6,27.7,24.4,0000.0,0007.79,0005.45,0005.24
2022-06-02 07:28:00,,0829.3,5.01,0.00,25.8,24.8,00.0,34.6,27.7,24.3,0000.0,0007.80,0005.44,0005.22
2022-06-02 07:29:00,,0829.3,4.98,0.00,25.8,24.8,00.0,34.7,27.7,24.3,0000.0,0007.75,0005.41,0005.21
2022-06-02 07:30:00,,0829.6,5.00,0.00,25.8,24.9,00.0,34.7,27.7,24.3,0000.0,0007.72,0005.39,0005.18
2022-06-02 07:31:00,,0829.4,5.00,0.00,25.8,24.9,00.0,34.7,27.7,24.4,0000.0,0007.69,0005.39,0005.18
2022-06-02 07:32:00,,0829.2,5.00,0.00,25.8,24.9,00.0,34.7,27.7,24.4,0000.0,0007.71,0005.41,0005.19
2022-06-02 07:33:00,,0829.3,5.00,0.00,25.8,24.9,00.0,34.7,27.8,24.3,0000.0,0007.71,0005.43,0005.20
2022-06-02 07:34:00,,0829.3,5.00,0.00,25.8,24.9,00.0,34.7,27.8,24.3,0000.0,0007.76,0005.46,0005.22
2022-06-02 07:35:00,,0829.3,5.00,0.00,25.8,24.9,00.0,34.7,27.8,24.3,0000.0,0007.75,0005.49,0005.26
2022-06-02 07:36:00,,0829.4,4.99,0.00,25.8,24.9,00.0,34.7,27.8,24.3,0000.0,0007.74,0005.52,0005.29
2022-06-02 07:37:00,,0829.5,5.01,0.00,25.8,24.9,00.0,34.7,27.8,24.3,0000.0,0007.79,0005.56,0005.31
2022-06-02 07:38:00,,0829.4,4.99,0.00,25.8,24.9,00.0,34.7,27.8,24.3,0000.0,0007.83,0005.60,0005.36
2022-06-02 07:39:00,,0829.2,5.01,0.00,25.8,24.9,00.0,34.7,27.8,24.3,0000.0,0007.81,0005.61,0005.38
2022-06-02 07:40:00,,0829.2,4.99,0.00,25.8,24.9,00.0,34.7,27.8,24.3,0000.0,0007.82,0005.63,0005.39
2022-06-02 07:41:00,,0829.2,5.01,0.00,25.8,24.9,00.0,34.7,27.8,24.3,0000.0,0007.87,0005.67,0005.43
2022-06-02 07:42:00,,0829.2,5.00,0.00,25.9,24.9,00.0,34.8,27.8,24.3,0000.0,0007.96,0005.73,0005.48
2022-06-02 07:43:00,,0829.2,4.99,0.00,25.9,24.9,00.0,34.8,27.8,24.3,0000.0,0008.00,0005.78,0005.53
2022-06-02 07:44:00,,0829.2,5.01,0.00,25.9,24.9,00.0,34.8,27.8,24.3,0000.0,0008.06,0005.83,0005.58
2022-06-02 07:45:00,,0829.2,4.99,0.00,25.9,24.9,00.0,34.8,27.8,24.3,0000.0,0008.04,0005.86,0005.64
2022-06-02 07:46:00,,0829.3,5.01,0.00,25.9,24.9,00.0,34.8,27.8,24.2,0000.0,0008.09,0005.91,0005.68
2022-06-02 07:47:00,,0829.2,5.00,0.00,25.9,24.9,00.0,34.8,27.8,24.3,0000.0,0008.12,0005.96,0005.72
2022-06-02 07:48:00,,0829.2,5.00,0.00,25.9,24.9,00.0,34.8,27.8,24.3,0000.0,0008.20,0006.02,0005.78
2022-06-02 07:49:00,,0829.2,5.01,0.00,25.9,24.9,00.0,34.8,27.8,24.3,0000.0,0008.21,0006.04,0005.82
2022-06-02 07:50:00,,0829.2,4.99,0.00,25.9,24.9,00.0,34.8,27.8,24.3,0000.0,0008.30,0006.08,0005.87
2022-06-02 07:51:00,,0829.2,4.99,0.00,25.9,24.9,00.0,34.8,27.8,24.3,0000.0,0008.73,0006.16,0005.93
2022-06-02 07:52:00,,0829.2,4.99,0.00,25.9,24.8,00.0,34.8,27.8,24.2,0000.0,0008.86,0006.26,0006.00
2022-06-02 07:53:00,,0829.2,5.01,0.00,25.9,24.8,00.0,34.8,27.8,24.2,0000.0,0008.90,0006.31,0006.05
2022-06-02 07:54:00,,0829.2,4.99,0.00,25.9,24.9,00.0,34.8,27.8,24.2,0000.0,0008.95,0006.35,0006.08
2022-06-02 07:55:00,,0829.2,5.01,0.00,25.9,24.9,00.0,34.8,27.8,24.2,0000.0,0009.02,0006.39,0006.13
2022-06-02 07:56:00,,0829.2,4.99,0.00,25.9,24.8,00.0,34.8,27.8,24.2,0000.0,0009.10,0006.43,0006.16
2022-06-02 07:57:00,,0829.2,4.99,0.00,25.9,24.8,00.0,34.8,27.8,24.2,0000.0,0009.17,0006.46,0006.20
2022-06-02 07:58:00,,0829.2,5.00,0.00,25.9,24.8,00.0,34.8,27.8,24.2,0000.0,0009.19,0006.49,0006.25
2022-06-02 07:59:00,,0829.1,5.00,0.00,25.9,24.8,00.0,34.8,27.8,24.2,0000.0,0009.62,0006.53,0006.30
